Sulphur, LA

7:29 AM CDT on June 23, 2017 (GMT -0500)
Sulphur

Weather History for KUXL - September, 2013

Change the Weather History Date:

Wednesday, September 11, 2013

  Actual Average (KLCH) Record (KLCH)
Temperature  
Mean Temperature 83 °F -  
Max Temperature 93 °F 87 °F 100 °F (1909)
Min Temperature 73 °F 71 °F 52 °F (1907)
Cooling Degree Days 18    
Growing Degree Days 33 (Base 50)    
Moisture  
Dew Point 73 °F    
Average Humidity 74    
Maximum Humidity 95    
Minimum Humidity 38    
Precipitation  
Precipitation 0.00 in - - ()
Sea Level Pressure  
Sea Level Pressure 30.06 in    
Wind  
Wind Speed 5 mph (East)    
Max Wind Speed 14 mph    
Max Gust Speed 20 mph    
Visibility 10 miles    
Events      
Averages and records for this station are not official NWS values.
T = Trace of Precipitation, MM = Missing Value Source: NWS Daily Summary

Daily Weather History Graph

Daily Weather History Graph

Search for Another Location

Airport or City:

Trip Planner

Search our weather history database for the weather conditions in past years. The results will help you decide how hot, cold, wet, or windy it might be!

Date:

Astronomy

Sep. 11, 2013 Rise Set
Actual Time 6:56 AM CDT 7:23 PM CDT
Civil Twilight 6:31 AM CDT 7:47 PM CDT
Nautical Twilight 6:03 AM CDT 8:15 PM CDT
Astronomical Twilight 5:35 AM CDT 8:44 PM CDT
Moon 12:57 PM CDT (9/11) 11:47 PM CDT (9/11)
Length of Visible Light 13h 15m
Length of Day
12h 27m
Waxing Crescent, 39% of the Moon is Illuminated
Sep 11
Waxing Crescent
Sep 12
First Quarter
Sep 19
Full
Sep 26
Last Quarter
Oct 4
New

Hourly Weather History & Observations

Time (CDT) Temp. Heat Index Dew Point Humidity Pressure Visibility Wind Dir Wind Speed Gust Speed Precip Events Conditions
12:15 AM 77.5 °F - 73.0 °F 86% 30.08 in 10.0 mi ENE 4.6 mph - N/A   Clear
12:35 AM 77.2 °F - 73.0 °F 87% 30.08 in 10.0 mi ENE 3.5 mph - N/A   Clear
12:55 AM 76.6 °F - 73.4 °F 90% 30.07 in 10.0 mi ENE 3.5 mph - N/A   Clear
1:15 AM 76.1 °F - 73.4 °F 91% 30.07 in 10.0 mi ENE 3.5 mph - N/A   Clear
1:35 AM 77.0 °F - 73.6 °F 89% 30.07 in 10.0 mi ENE 4.6 mph - N/A   Clear
1:55 AM 77.0 °F - 73.8 °F 90% 30.07 in 10.0 mi East 4.6 mph - N/A   Clear
2:15 AM 77.4 °F - 73.8 °F 89% 30.07 in 10.0 mi ENE 4.6 mph - N/A   Clear
2:35 AM 77.0 °F - 73.8 °F 90% 30.07 in 10.0 mi ENE 3.5 mph - N/A   Clear
2:55 AM 76.5 °F - 73.6 °F 91% 30.06 in 10.0 mi Calm Calm - N/A   Clear
3:15 AM 76.3 °F - 73.9 °F 92% 30.06 in 10.0 mi ENE 3.5 mph - N/A   Clear
3:35 AM 76.3 °F - 73.8 °F 92% 30.06 in 10.0 mi ENE 4.6 mph - N/A   Clear
3:55 AM 76.6 °F - 73.8 °F 91% 30.06 in 10.0 mi ENE 3.5 mph - N/A   Clear
4:15 AM 76.1 °F - 73.6 °F 92% 30.06 in 10.0 mi ENE 3.5 mph - N/A   Clear
4:35 AM 75.9 °F - 73.6 °F 92% 30.06 in 10.0 mi Calm Calm - N/A   Clear
4:55 AM 76.1 °F - 73.8 °F 92% 30.06 in 10.0 mi Calm Calm - N/A   Clear
5:15 AM 73.8 °F - 72.3 °F 95% 30.06 in 5.0 mi Calm Calm - N/A   Clear
5:35 AM 75.0 °F - 73.4 °F 95% 30.06 in 7.0 mi NE 4.6 mph - N/A   Clear
5:55 AM 75.7 °F - 73.6 °F 93% 30.06 in 10.0 mi NNE 4.6 mph - N/A   Clear
6:15 AM 75.9 °F - 73.6 °F 92% 30.07 in 10.0 mi Calm Calm - N/A   Clear
6:35 AM 76.1 °F - 73.6 °F 92% 30.07 in 10.0 mi NNE 3.5 mph - N/A   Clear
6:55 AM 76.5 °F - 73.8 °F 91% 30.08 in 10.0 mi NE 3.5 mph - N/A   Clear
7:15 AM 76.6 °F - 74.1 °F 92% 30.08 in 10.0 mi NE 4.6 mph - N/A   Clear
7:35 AM 77.2 °F - 74.3 °F 91% 30.09 in 10.0 mi ENE 4.6 mph - N/A   Clear
7:55 AM 77.9 °F - 74.5 °F 89% 30.09 in 7.0 mi ENE 4.6 mph - N/A   Clear
8:15 AM 79.2 °F - 74.8 °F 87% 30.09 in 7.0 mi ENE 6.9 mph - N/A   Clear
8:35 AM 80.4 °F 85.6 °F 74.7 °F 83% 30.09 in 10.0 mi ENE 9.2 mph - N/A   Clear
8:55 AM 81.5 °F 87.4 °F 74.3 °F 79% 30.09 in 10.0 mi ENE 6.9 mph - N/A   Clear
9:15 AM 82.9 °F 89.4 °F 73.9 °F 74% 30.10 in 10.0 mi ENE 10.4 mph - N/A   Clear
9:35 AM 83.7 °F 90.7 °F 74.3 °F 73% 30.10 in 10.0 mi ENE 11.5 mph - N/A   Clear
9:55 AM 83.7 °F 90.4 °F 73.9 °F 72% 30.11 in 10.0 mi ENE 8.1 mph - N/A   Clear
10:15 AM 84.2 °F 90.9 °F 73.6 °F 70% 30.11 in 10.0 mi ENE 8.1 mph - N/A   Clear
10:35 AM 86.2 °F 93.4 °F 73.0 °F 65% 30.11 in 10.0 mi NE 9.2 mph 16.1 mph N/A   Clear
10:55 AM 87.3 °F 94.5 °F 72.7 °F 62% 30.11 in 10.0 mi ENE 10.4 mph - N/A   Scattered Clouds
11:15 AM 88.0 °F 94.7 °F 72.0 °F 59% 30.11 in 10.0 mi ENE 10.4 mph - N/A   Scattered Clouds
11:35 AM 88.3 °F 94.5 °F 71.2 °F 57% 30.11 in 10.0 mi East 10.4 mph 17.3 mph N/A   Scattered Clouds
11:55 AM 90.0 °F 95.9 °F 70.9 °F 53% 30.11 in 10.0 mi East 8.1 mph - N/A   Scattered Clouds
12:15 PM 89.6 °F 93.9 °F 68.9 °F 50% 30.10 in 10.0 mi ENE 8.1 mph 18.4 mph N/A   Scattered Clouds
12:35 PM 90.5 °F 94.2 °F 68.0 °F 47% 30.10 in 10.0 mi ENE 8.1 mph - N/A   Clear
12:55 PM 90.5 °F 92.9 °F 66.0 °F 44% 30.09 in 10.0 mi East 9.2 mph 18.4 mph N/A   Clear
1:15 PM 90.9 °F 92.3 °F 64.0 °F 41% 30.09 in 10.0 mi ENE 9.2 mph - N/A   Clear
1:35 PM 91.6 °F 93.9 °F 65.5 °F 42% 30.08 in 10.0 mi East 9.2 mph - N/A   Clear
1:55 PM 92.5 °F 95.4 °F 66.4 °F 42% 30.08 in 10.0 mi East 4.6 mph 16.1 mph N/A   Clear
2:15 PM 92.1 °F 95.3 °F 66.9 °F 43% 30.07 in 10.0 mi East 11.5 mph - N/A   Clear
2:35 PM 93.2 °F 94.9 °F 64.4 °F 38% 30.06 in 10.0 mi ENE 6.9 mph 16.1 mph N/A   Scattered Clouds
2:55 PM 92.8 °F 96.6 °F 67.6 °F 43% 30.05 in 10.0 mi East 9.2 mph - N/A   Scattered Clouds
3:15 PM 92.7 °F 96.2 °F 66.9 °F 43% 30.04 in 10.0 mi SE 6.9 mph - N/A   Scattered Clouds
3:35 PM 93.4 °F 98.1 °F 68.2 °F 44% 30.04 in 10.0 mi ESE 10.4 mph - N/A   Scattered Clouds
3:55 PM 92.8 °F 97.1 °F 68.2 °F 44% 30.03 in 10.0 mi SE 9.2 mph 16.1 mph N/A   Mostly Cloudy
4:15 PM 90.5 °F 99.2 °F 73.2 °F 57% 30.03 in 10.0 mi SSE 10.4 mph - N/A   Mostly Cloudy
4:35 PM 90.5 °F 99.2 °F 73.2 °F 57% 30.03 in 10.0 mi SSE 12.7 mph 19.6 mph N/A   Clear
4:55 PM 90.5 °F 99.7 °F 73.8 °F 58% 30.03 in 10.0 mi SSE 13.8 mph 18.4 mph N/A   Clear
5:15 PM 89.6 °F 95.2 °F 70.5 °F 53% 30.02 in 10.0 mi SSE 11.5 mph - N/A   Clear
5:35 PM 89.6 °F 99.3 °F 74.5 °F 61% 30.02 in 10.0 mi SSE 11.5 mph - N/A   Clear
5:55 PM 88.5 °F 97.3 °F 73.9 °F 62% 30.02 in 10.0 mi South 8.1 mph - N/A   Clear
6:15 PM 86.4 °F 93.4 °F 72.7 °F 64% 30.02 in 10.0 mi SSE 8.1 mph - N/A   Clear
6:35 PM 85.1 °F 91.8 °F 73.0 °F 67% 30.02 in 10.0 mi South 5.8 mph - N/A   Clear
6:55 PM 83.8 °F 90.4 °F 73.6 °F 71% 30.01 in 10.0 mi South 4.6 mph - N/A   Clear
7:15 PM 82.8 °F 89.2 °F 74.1 °F 75% 30.01 in 10.0 mi South 3.5 mph - N/A   Clear
7:35 PM 81.9 °F 88.0 °F 74.3 °F 78% 30.02 in 10.0 mi South 3.5 mph - N/A   Clear
7:55 PM 81.0 °F 86.0 °F 73.4 °F 78% 30.03 in 10.0 mi South 3.5 mph - N/A   Clear
8:15 PM 80.6 °F 85.4 °F 73.6 °F 79% 30.03 in 10.0 mi South 3.5 mph - N/A   Clear
8:35 PM 80.6 °F 85.4 °F 73.4 °F 79% 30.03 in 10.0 mi SSE 3.5 mph - N/A   Clear
8:55 PM 79.9 °F - 73.4 °F 80% 30.04 in 10.0 mi Calm Calm - N/A   Clear
9:15 PM 79.7 °F - 73.9 °F 82% 30.04 in 10.0 mi Calm Calm - N/A   Clear
9:35 PM 79.9 °F - 74.5 °F 83% 30.04 in 10.0 mi Calm Calm - N/A   Clear
9:55 PM 81.1 °F 87.0 °F 74.8 °F 81% 30.05 in 10.0 mi Calm Calm - N/A   Clear
10:15 PM 79.9 °F - 75.2 °F 86% 30.05 in 10.0 mi Calm Calm - N/A   Clear
10:35 PM 77.2 °F - 74.3 °F 91% 30.05 in 10.0 mi Calm Calm - N/A   Clear
10:55 PM 77.5 °F - 75.4 °F 93% 30.05 in 10.0 mi ENE 3.5 mph - N/A   Clear
11:15 PM 78.8 °F - 75.2 °F 89% 30.04 in 10.0 mi ENE 3.5 mph - N/A   Clear
11:35 PM 78.3 °F - 74.5 °F 88% 30.04 in 10.0 mi Calm Calm - N/A   Clear
11:55 PM 77.9 °F - 74.5 °F 89% 30.04 in 10.0 mi Calm Calm - N/A   Clear